EW9280 Weather Reports


time (UTC)temp
F
wind
direction
speed
knots
gust
knots
rain 1hr
in
rain 24hr
in
rain mn
in
humidity
%
barometer
mb
20260505100011 63 175 5.2 12.2 0.00 0.00 0.00 71 1011.5
20260505094500 63 119 4.3 14.8 0.00 0.00 0.00 71 1011.4
20260505093059 63 129 7.0 12.2 0.00 0.00 0.00 70 1011.2
20260505091617 63 125 7.0 11.3 0.00 0.00 0.00 69 1011.2
20260505090101 64 123 7.8 17.4 0.00 0.00 0.00 69 1011.1
20260505084551 64 116 7.8 14.8 0.00 0.00 0.00 69 1011.0
20260505083052 64 137 7.0 13.0 0.00 0.00 0.00 70 1011.0
20260505081548 64 105 5.2 12.2 0.00 0.00 0.00 69 1011.1
20260505080050 64 94 7.0 13.0 0.00 0.00 0.00 68 1010.9
20260505074543 65 131 7.0 12.2 0.00 0.00 0.00 68 1011.0
20260505073050 65 139 7.8 12.2 0.00 0.00 0.00 67 1010.9
20260505071542 65 115 6.1 10.4 0.00 0.00 0.00 67 1010.9
20260505070037 65 125 6.1 10.4 0.00 0.00 0.00 68 1010.9
20260505064533 65 127 7.8 12.2 0.00 0.00 0.00 68 1010.9
20260505063043 65 130 7.0 13.0 0.00 0.00 0.00 67 1010.9
20260505061535 65 134 7.0 12.2 0.00 0.00 0.00 68 1010.9
20260505060032 66 119 6.1 11.3 0.00 0.00 0.00 68 1010.9
20260505054541 66 153 7.8 14.8 0.00 0.00 0.00 68 1010.8
20260505053028 66 139 7.8 15.6 0.00 0.00 0.00 68 1011.0
20260505051535 66 113 9.6 13.9 0.00 0.00 0.00 68 1011.0
20260505041526 67 134 8.7 13.0 0.00 0.00 0.00 68 1010.9
20260505040012 67 130 7.8 13.0 0.00 0.00 0.00 68 1010.9
20260505034511 67 111 6.1 13.0 0.00 0.00 0.00 67 1010.9
20260505033010 67 135 5.2 10.4 0.00 0.00 0.00 64 1010.9
20260505031522 67 140 4.3 8.7 0.00 0.00 0.00 59 1010.9
20260505030009 68 109 3.5 7.0 0.00 0.00 0.00 57 1010.7
20260505024509 68 133 4.3 7.0 0.00 0.00 0.00 56 1010.7
20260505023008 67 129 3.5 7.0 0.00 0.00 0.00 59 1010.7
20260505021508 67 136 1.7 5.2 0.00 0.00 0.00 62 1010.7
20260505020007 66 126 1.7 4.3 0.00 0.00 0.00 68 1010.5
20260505014513 65 117 1.7 3.5 0.00 0.00 0.00 69 1010.5
20260505013006 65 119 0.9 2.6 0.00 0.00 0.00 74 1010.5
20260505011509 65 127 0.9 3.5 0.00 0.00 0.00 74 1010.4
20260505010012 65 128 1.7 3.5 0.00 0.00 0.00 75 1010.4
20260505004505 65 126 1.7 3.5 0.00 0.00 0.00 71 1010.2
20260505003004 66 128 2.6 6.1 0.00 0.00 0.00 69 1009.9
20260505001503 67 115 2.6 7.0 0.00 0.00 0.00 65 1010.0
20260505000003 68 117 2.6 7.8 0.00 0.00 0.00 61 1010.0
20260504234501 69 129 0.9 4.3 0.00 0.00 0.00 57 1009.9
20260504233001 70 122 0.9 2.6 0.00 0.00 0.00 52 1009.8
20260504231500 71 126 0.9 3.5 0.00 0.00 0.00 51 1009.8
20260504230116 71 83 1.7 6.1 0.00 0.00 0.00 50 1009.7
20260504224626 72 123 1.7 7.0 0.00 0.00 0.00 49 1009.8
20260504223108 72 117 2.6 5.2 0.00 0.00 0.00 46 1009.9
20260504221558 73 119 0.9 5.2 0.00 0.00 0.00 45 1009.9
20260504220100 73 119 0.9 6.1 0.00 0.00 0.00 46 1009.9
20260504214557 73 113 2.6 7.0 0.00 0.00 0.00 45 1010.0
20260504213102 73 128 2.6 9.6 0.00 0.00 0.00 46 1009.9
20260504211600 74 111 5.2 13.0 0.00 0.00 0.00 34 1010.0
20260504204555 74 108 8.7 13.0 0.00 0.00 0.00 35 1009.9
20260504203053 73 126 3.5 7.8 0.00 0.00 0.00 36 1009.9
20260504201552 72 121 5.2 9.6 0.00 0.00 0.00 46 1010.2
20260504200100 72 106 3.5 11.3 0.00 0.00 0.00 43 1010.2
20260504194548 73 103 2.6 10.4 0.00 0.00 0.00 38 1010.3
20260504193049 73 119 5.2 8.7 0.00 0.00 0.00 41 1010.4
20260504191559 73 123 1.7 8.7 0.00 0.00 0.00 38 1010.5
20260504190042 73 125 2.6 13.0 0.00 0.00 0.00 36 1011.0
20260504184541 73 136 7.0 11.3 0.00 0.00 0.00 34 1011.1
20260504183038 73 113 3.5 7.8 0.00 0.00 0.00 35 1011.3
20260504181533 72 122 6.1 13.0 0.00 0.00 0.00 34 1011.4
20260504180029 72 115 3.5 6.1 0.00 0.00 0.00 40 1011.6
20260504174525 70 135 0.0 5.2 0.00 0.00 0.00 43 1011.6
20260504173022 69 145 0.9 2.6 0.00 0.00 0.00 55 1012.0
20260504171520 69 158 0.9 2.6 0.00 0.00 0.00 50 1012.2